Change the Weather History Date:

Wednesday, August 8, 2012

  Actual Average Record
Temperature  
Mean Temperature 87 °F 85 °F  
Max Temperature 97 °F 95 °F 101 °F (2003)
Min Temperature 77 °F 75 °F 71 °F (1976)
Degree Days  
Heating Degree Days 0 0  
Month to date heating degree days 0 0  
Since 1 June heating degree days 0 0  
Since 1 July heating degree days 0 0  
Cooling Degree Days 22 20  
Month to date cooling degree days 174 160  
Year to date cooling degree days 2674 2110  
Since 1 June cooling degree days 1441 1269  
Growing Degree Days 37 (Base 50)    
Moisture  
Dew Point 73 °F    
Average Humidity 64    
Maximum Humidity 85    
Minimum Humidity 42    
Precipitation  
Precipitation 0.08 in 0.06 in 0.68 in (1900)
Month to date precipitation 0.09 0.47  
Year to date precipitation 14.39 16.89  
Snow  
Snow 0.00 in - - ()
Month to date snowfall 0.0  
Since 1 June snowfall 0.0  
Since 1 July snowfall 0.0  
Snow Depth 0.00 in    
Sea Level Pressure  
Sea Level Pressure 29.93 in    
Wind  
Wind Speed 7 mph (SE)    
Max Wind Speed 20 mph    
Max Gust Speed 26 mph    
Visibility 10 miles    
Events      
T = Trace of Precipitation, MM = Missing Value Source: NWS Daily Summary

Daily Weather History Graph

Daily Weather History Graph

Search for Another Location

Airport or City:

Trip Planner

Search our weather history database for the weather conditions in past years. The results will help you decide how hot, cold, wet, or windy it might be!

Date:

Astronomy

Aug. 08, 2012 Rise Set
Actual Time 6:57 AM CDT 8:13 PM CDT
Civil Twilight 6:32 AM CDT 8:38 PM CDT
Nautical Twilight 6:02 AM CDT 9:08 PM CDT
Astronomical Twilight 5:31 AM CDT 9:38 PM CDT
Moon No Moon Rise 1:01 PM CDT (8/8)
Length of Visible Light 14h 06m
Length of Day
13h 16m
Waning Gibbous, 60% of the Moon is Illuminated
Aug 8
Waning Gibbous
Aug 9
Last Quarter
Aug 17
New
Aug 24
First Quarter
Aug 31
Full

Hourly Weather History & Observations

Time (CDT) Temp. Heat Index Dew Point Humidity Pressure Visibility Wind Dir Wind Speed Gust Speed Precip Events Conditions
12:51 AM 82.9 °F 90.2 °F 75.0 °F 77% 29.94 in 10.0 mi SSE 5.8 mph - N/A   Partly Cloudy
1:51 AM 82.0 °F 87.4 °F 73.0 °F 74% 29.92 in 10.0 mi South 3.5 mph - N/A   Partly Cloudy
2:51 AM 80.1 °F 84.2 °F 73.0 °F 79% 29.91 in 10.0 mi SSW 4.6 mph - N/A   Partly Cloudy
3:51 AM 79.0 °F - 73.0 °F 82% 29.91 in 10.0 mi Calm Calm - N/A   Partly Cloudy
4:51 AM 78.1 °F - 73.0 °F 84% 29.92 in 10.0 mi Calm Calm - N/A   Partly Cloudy
5:51 AM 79.0 °F - 73.0 °F 82% 29.93 in 10.0 mi NE 3.5 mph - N/A   Mostly Cloudy
6:20 AM 80.6 °F 86.2 °F 75.2 °F 84% 29.94 in 10.0 mi East 3.5 mph - N/A   Scattered Clouds
6:51 AM 78.1 °F - 73.0 °F 84% 29.95 in 10.0 mi Calm Calm - N/A   Partly Cloudy
7:51 AM 82.0 °F 88.6 °F 75.0 °F 79% 29.96 in 10.0 mi Calm Calm - N/A   Partly Cloudy
8:51 AM 86.0 °F 96.0 °F 75.9 °F 72% 29.97 in 10.0 mi Calm Calm - N/A   Partly Cloudy
9:51 AM 87.1 °F 94.5 °F 73.0 °F 63% 29.98 in 10.0 mi SSW 6.9 mph - N/A   Scattered Clouds
10:51 AM 91.0 °F 97.6 °F 71.1 °F 52% 29.99 in 10.0 mi SSW 3.5 mph - N/A   Scattered Clouds
11:51 AM 95.0 °F 101.3 °F 70.0 °F 44% 29.97 in 10.0 mi East 8.1 mph - N/A   Scattered Clouds
12:51 PM 91.9 °F 100.7 °F 73.0 °F 54% 29.96 in 10.0 mi SE 9.2 mph 18.4 mph N/A   Scattered Clouds
1:51 PM 90.0 °F 101.3 °F 75.9 °F 63% 29.95 in 10.0 mi East 8.1 mph - 0.08 in   Mostly Cloudy
2:51 PM 95.0 °F 103.2 °F 72.0 °F 47% 29.93 in 10.0 mi East 12.7 mph 20.7 mph N/A   Scattered Clouds
3:51 PM 96.1 °F 102.9 °F 70.0 °F 43% 29.90 in 10.0 mi ESE 12.7 mph 19.6 mph N/A   Scattered Clouds
4:51 PM 95.0 °F 101.3 °F 70.0 °F 44% 29.89 in 10.0 mi SE 12.7 mph - N/A   Partly Cloudy
5:51 PM 93.9 °F 100.8 °F 71.1 °F 47% 29.89 in 10.0 mi ESE 13.8 mph 20.7 mph N/A   Partly Cloudy
6:51 PM 91.0 °F 99.3 °F 73.0 °F 55% 29.89 in 10.0 mi SE 15.0 mph - N/A   Partly Cloudy
7:51 PM 88.0 °F 96.5 °F 73.9 °F 63% 29.91 in 10.0 mi SE 11.5 mph - N/A   Partly Cloudy
8:51 PM 86.0 °F 95.1 °F 75.0 °F 70% 29.93 in 10.0 mi SE 10.4 mph - N/A   Partly Cloudy
9:51 PM 86.0 °F 95.1 °F 75.0 °F 70% 29.94 in 10.0 mi SE 11.5 mph - N/A   Partly Cloudy
10:51 PM 84.9 °F 93.3 °F 75.0 °F 72% 29.94 in 10.0 mi SSE 10.4 mph - N/A   Partly Cloudy
11:51 PM 84.0 °F 91.9 °F 75.0 °F 74% 29.95 in 10.0 mi SSE 5.8 mph - N/A   Partly Cloudy